SERIAL,TIME,MODEL,SN(OPTODE),OXYGEN,SATURATION,TEMPERATURE,CALPHASE,TCPHASE,C1RPH,C2RPH,C1AMP,C2AMP,RAWTEMP,CHECK
12,1336056540,4330,862,176.8240966796875000,51.9479789733886700,11.4693298339843750,37.2899093627929700,37.2843399047851560,41.7914314270019500,4.5070881843566895,825.9680175781250000,792.4948120117188000,371.5162048339844000,51737
12,1336057787,4330,862,177.3011016845703000,48.9860916137695300,8.8586111068725590,38.6723594665527340,38.6483802795410160,43.1205406188964840,4.4721679687500000,864.1674194335938000,820.7443847656250000,456.9702148437500000,50290
12,1336059535,4330,862,175.0382995605468800,48.7917518615722660,9.2283477783203120,38.6283493041992200,38.6049613952636700,43.0681610107421900,4.4632029533386230,862.6829833984375000,819.6967163085938000,444.9371948242187500,59481
12,1336059749,4330,862,171.9407958984375000,48.3111305236816400,9.5620803833007810,38.6679382324218750,38.6440086364746100,43.1110496520996100,4.4670410156250000,863.2999877929688000,815.2977294921875000,434.0545043945312500,16527
12,1336059963,4330,862,170.7678070068359400,48.4849586486816400,10.0029201507568360,38.5133590698242200,38.4914894104003900,42.9612617492675800,4.4697651863098145,858.8234252929688000,810.8934936523438000,419.6494140625000000,11275
12,1336060173,4330,862,169.8663024902343800,48.7914886474609400,10.4967603683471680,38.3116989135742200,38.2925186157226560,42.7664604187011700,4.4739460945129395,853.2600708007812000,805.8604736328125000,403.4746093750000000,62733
12,1336060387,4330,862,170.3943939208984400,49.5198211669921900,11.0000000000000000,38.0018005371093750,37.9867515563964840,42.4662895202636700,4.4795460700988770,844.6170043945312000,800.7490844726562000,386.9545898437500000,37004
12,1336060612,4330,862,173.0162048339843800,50.7757415771484400,11.4235095977783200,37.5855102539062500,37.5760002136230500,42.0591087341308600,4.4831089973449710,833.4265747070312000,795.7816772460938000,373.0245971679687500,11659
12,1336060848,4330,862,176.0281982421875000,52.1705894470214840,11.8529701232910160,37.1431808471679700,37.1395606994628900,41.6268615722656250,4.4872970581054690,821.4619140625000000,791.0288696289062000,358.8758850097656000,1312
12,1336061091,4330,862,182.2077941894531200,54.6700401306152340,12.3940000534057620,36.4294700622558600,36.4353713989257800,40.9263305664062500,4.4909591674804690,802.2926025390625000,785.1917114257812000,341.0219116210937500,16398
12,1336061325,4330,862,189.1506958007812500,57.4243583679199200,12.9162397384643550,35.6962585449218750,35.7119293212890600,40.2045898437500000,4.4926609992980960,782.7089843750000000,780.4854125976562000,323.7608947753906000,52605
12,1336061561,4330,862,195.0171966552734400,59.7062606811523440,13.2933597564697270,35.1262397766113300,35.1495018005371100,39.6466102600097660,4.4971079826354980,767.1837768554688000,775.8009033203125000,311.2822875976562500,3242
12,1336061797,4330,862,199.0424041748047000,61.3669395446777340,13.6087799072265620,34.7157211303710940,34.7444496154785160,39.2448005676269500,4.5003428459167480,756.1691894531250000,772.5155029296875000,300.8369140625000000,63427
12,1336062040,4330,862,204.6363067626953000,63.5617408752441400,13.9449996948242190,34.2092094421386700,34.2446899414062500,38.7483711242675800,4.5036768913269040,742.3947753906250000,769.1229858398438000,289.6961975097656000,42282
12,1336062197,4330,862,205.4918975830078000,64.1937713623046900,14.2054500579833980,34.0285797119140600,34.0664710998535160,38.5707702636718750,4.5043029785156250,737.5504760742188000,766.7628173828125000,281.0620117187500000,9988
12,1336062352,4330,862,206.2859039306640600,64.7068328857421900,14.3929901123046880,33.8891792297363300,33.9289207458496100,38.4351806640625000,4.5062561035156250,733.5518188476562000,764.4664916992188000,274.8429870605469000,54321
12,1336062487,4330,862,206.4795074462890600,65.0288772583007800,14.5775499343872070,33.7868194580078100,33.8279190063476560,38.3353118896484400,4.5073928833007810,730.7075805664062000,762.8557128906250000,268.7213134765625000,12017
12,1336062609,4330,862,207.5178070068359400,65.6814804077148400,14.8061304092407230,33.6141586303710940,33.6575584411621100,38.1637115478515600,4.5061488151550290,725.9459228515625000,760.5797119140625000,261.1376037597656000,5490
12,1336062724,4330,862,208.6488952636718800,66.3008193969726600,14.9884300231933600,33.4593887329101560,33.5048599243164060,38.0156097412109400,4.5107498168945310,721.7556762695312000,758.6290283203125000,255.0888061523437500,22791
12,1336062835,4330,862,209.7825012207031200,66.9681167602539000,15.2012901306152340,33.2904281616210940,33.3381500244140600,37.8479499816894500,4.5098037719726560,717.1777954101562000,756.5921020507812000,248.0247039794922000,19279
12,1336062946,4330,862,210.4089050292968800,67.4227066040039000,15.3770704269409180,33.1694793701171900,33.2187995910644500,37.7288093566894500,4.5100097656250000,713.6724243164062000,754.8574218750000000,242.1909027099609400,38787
12,1336063061,4330,862,211.8032073974609400,68.1205902099609400,15.5491695404052730,33.0074691772460940,33.0589599609375000,37.5712394714355500,4.5122828483581540,709.3828125000000000,753.1380004882812000,236.4788970947265600,39976
12,1336063172,4330,862,212.5579071044922000,68.5911712646484400,15.7046604156494140,32.8907394409179700,32.9437789916992200,37.4583702087402340,4.5145869255065920,706.0869750976562000,751.4796752929688000,231.3179016113281200,47789
12,1336063294,4330,862,212.9447021484375000,68.9634399414062500,15.8730897903442380,32.7884292602539060,32.8428306579589840,37.3567314147949200,4.5138931274414060,703.2619018554688000,749.7717285156250000,225.7276000976562500,42402
12,1336063407,4330,862,215.0426940917968800,69.8635482788086000,16.0216999053955080,32.6007690429687500,32.6576805114746100,37.1734809875488300,4.5158081054687500,698.3582763671875000,748.4041748046875000,220.7949981689453000,25021
12,1336063529,4330,862,216.3845062255859400,70.5107574462890600,16.1630191802978500,32.4600181579589840,32.5187988281250000,37.0346298217773440,4.5158309936523440,694.4744262695312000,747.2515258789062000,216.1049041748047000,16586
12,1336063655,4330,862,215.5655059814453000,70.3832626342773400,16.2565498352050780,32.4606704711914060,32.5194396972656250,37.0393295288085940,4.5198898315429690,694.5308837890625000,746.0546875000000000,213.0007019042968800,23242
12,1336063777,4330,862,216.5019073486328000,70.9281005859375000,16.4162406921386720,32.3340301513671900,32.3944892883300800,36.9118614196777340,4.5173721313476560,691.1182861328125000,744.7567749023438000,207.7012939453125000,15550
12,1336063888,4330,862,218.2621002197265600,71.7305297851562500,16.5656604766845700,32.1682701110839840,32.2309417724609400,36.7502403259277340,4.5193018913269040,686.6884155273438000,743.4453735351562000,202.7431945800781200,22834
12,1336064003,4330,862,222.9694061279297000,73.5333480834961000,16.7313098907470700,31.8398990631103500,31.9069404602050780,36.4268608093261700,4.5199198722839355,677.6666870117188000,741.7520141601562000,197.2471008300781200,17770
12,1336064114,4330,862,225.9832000732422000,74.7529296875000000,16.8753700256347660,31.6160697937011720,31.6860904693603500,36.2065582275390600,4.5204701423645020,671.3438110351562000,740.4464721679688000,192.4682006835937500,7658
12,1336064225,4330,862,227.3027954101562500,75.4045181274414000,17.0118198394775400,31.4850597381591800,31.5568294525146500,36.0816001892089840,4.5247731208801270,667.9553222656250000,739.0294799804688000,187.9423980712890600,58279
12,1336064337,4330,862,228.4521026611328000,75.9590835571289000,17.1211395263671880,31.3760204315185550,31.4492397308349600,35.9710502624511700,4.5218048095703125,665.0317993164062000,737.9575195312500000,184.3171997070312500,53729
12,1336064448,4330,862,229.2301940917968800,76.3887481689453100,17.2285404205322270,31.2870407104492200,31.3614501953125000,35.8841514587402340,4.5226969718933105,662.5441284179688000,736.9531860351562000,180.7555999755859400,44115
12,1336064570,4330,862,231.1455993652343800,77.2299423217773400,17.3549194335937500,31.1329402923584000,31.2094001770019530,35.7324714660644500,4.5230641365051270,658.4655761718750000,735.8115234375000000,176.5657043457031200,53311
12,1336064694,4330,862,231.9156036376953000,77.6184768676757800,17.4363708496093750,31.0573501586914060,31.1348209381103500,35.6585197448730500,4.5237050056457520,656.3615112304688000,734.8942871093750000,173.8659973144531200,14659
12,1336064827,4330,862,232.3168029785156200,77.9574432373046900,17.5631103515625000,30.9795093536376950,31.0580101013183600,35.5826988220214840,4.5246891975402830,654.1821289062500000,733.8178710937500000,169.6654052734375000,17763
12,1336064964,4330,862,232.6311035156250000,78.2597732543945300,17.6847496032714840,30.9089698791503900,30.9884109497070300,35.5126609802246100,4.5242462158203125,652.3776245117188000,732.7907714843750000,165.6345062255859400,55200
12,1336065097,4330,862,232.7109985351562500,78.4531402587890600,17.7875709533691400,30.8584098815917970,30.9385204315185550,35.4642906188964840,4.5257639884948730,651.0714721679688000,731.7371215820312000,162.2281951904297000,53094
12,1336065219,4330,862,232.1266021728515600,78.3646926879882800,17.8547306060791000,30.8571300506591800,30.9372596740722660,35.4634208679199200,4.5261540412902830,651.1301879882812000,731.1049804687500000,160.0034942626953000,38531
12,1336065332,4330,862,231.0870056152343800,78.2065734863281200,17.9745407104492200,30.8546905517578120,30.9348602294921880,35.4624710083007800,4.5276107788085940,651.0034790039062000,730.3698120117188000,156.0355987548828000,2778
12,1336065432,4330,862,229.8558959960937500,78.1869430541992200,18.2223606109619140,30.8045997619628900,30.8854293823242200,35.4122505187988300,4.5268249511718750,649.6077270507812000,728.7709960937500000,147.8312072753906200,2652
12,1336065488,4330,862,230.6524047851562500,78.6454467773437500,18.3389396667480470,30.7127094268798830,30.7947692871093750,35.3231887817382800,4.5284190177917480,647.1600952148438000,728.6699218750000000,143.9734039306640600,35258
12,1336065550,4330,862,233.0281982421875000,79.8927688598632800,18.6077003479003900,30.4750595092773440,30.5602798461914060,35.0880584716796900,4.5277791023254395,640.6107788085938000,727.0676879882812000,135.0836029052734400,28624
12,1336065622,4330,862,238.8267974853515600,82.4192276000976600,18.9302101135253900,30.0524902343750000,30.1433391571044920,34.6747093200683600,4.5313639640808105,628.8917236328125000,724.1608276367188000,124.4243011474609400,39608
12,1336065711,4330,862,249.4232025146484400,86.4619903564453100,19.1513195037841800,29.4657096862792970,29.5643806457519530,34.1024017333984400,4.5380167961120605,612.6193847656250000,720.1157226562500000,117.1221008300781200,62224
12,1336065819,4330,862,257.1008911132812500,89.3745498657226600,19.2907600402832030,29.0661907196044920,29.1701793670654300,33.7074089050293000,4.5372309684753420,601.7266235351562000,718.4592285156250000,112.5195999145507800,11013
12,1336065948,4330,862,262.1593933105469000,91.2133865356445300,19.3345203399658200,28.8305892944335940,28.9377193450927730,33.4766998291015600,4.5389790534973145,595.2877807617188000,717.5576782226562000,111.0753021240234400,24009
12,1336066083,4330,862,264.1412048339844000,91.9459228515625000,19.3577594757080080,28.7371692657470700,28.8455505371093750,33.3849296569824200,4.5393829345703125,592.7954711914062000,717.1702880859375000,110.3087005615234400,60398
12,1336066230,4330,862,264.5397949218750000,92.0817565917968800,19.3561992645263670,28.7211093902587900,28.8297004699707030,33.3651390075683600,4.5354390144348145,592.5490722656250000,717.2144165039062000,110.3602981567382800,35734
12,1336066403,4330,862,264.8208923339844000,92.1829528808593800,19.3580093383789060,28.7086200714111330,28.8173809051513670,33.3532791137695300,4.5359039306640625,592.4166259765625000,717.2750244140625000,110.3003005981445300,28218
12,1336066558,4330,862,264.8750000000000000,92.2078628540039000,19.3612594604492200,28.7049102783203120,28.8137092590332030,33.3481483459472660,4.5344390869140625,592.3748779296875000,717.2877807617188000,110.1932983398437500,6254
12,1336066685,4330,862,265.0273132324219000,92.2710571289062500,19.3667697906494140,28.6962203979492200,28.8051490783691400,33.3396110534668000,4.5344700813293460,592.2393798828125000,717.3284301757812000,110.0115966796875000,21113
12,1336066802,4330,862,265.3270874023437500,92.3820800781250000,19.3703308105468750,28.6821308135986330,28.7912406921386720,33.3252487182617200,4.5340042114257810,591.9827270507812000,717.3795166015625000,109.8940963745117200,35497
12,1336066921,4330,862,265.4194946289062500,92.4135665893554700,19.3699703216552730,28.6784496307373050,28.7876091003417970,33.3228302001953100,4.5352249145507810,592.0576782226562000,717.4224243164062000,109.9058990478515600,30409
12,1336067029,4330,862,265.2289123535156000,92.3507232666015600,19.3718490600585940,28.6855106353759770,28.7945709228515620,33.3274993896484400,4.5329279899597170,592.1738281250000000,717.4202880859375000,109.8440017700195300,29049
12,1336067146,4330,862,265.5313110351562500,92.4583663940429700,19.3731098175048830,28.6725006103515620,28.7817401885986330,33.3173103332519500,4.5355682373046875,592.1074829101562000,717.5615844726562000,109.8023986816406200,51753
12,1336067256,4330,862,265.7249145507812500,92.5293273925781200,19.3750190734863280,28.6634998321533200,28.7728595733642580,33.3075981140136700,4.5347437858581540,591.9030761718750000,717.6353759765625000,109.7391967773437500,4732
12,1336067364,4330,862,266.1549072265625000,92.6846008300781200,19.3779907226562500,28.6444091796875000,28.7540206909179700,33.2850494384765600,4.5310292243957520,591.3607177734375000,717.6096191406250000,109.6414031982421900,3408
12,1336067419,4330,862,266.5560913085937500,92.8305969238281200,19.3813304901123050,28.6261291503906250,28.7359790802001950,33.2663688659668000,4.5303878784179690,591.0354003906250000,718.7564697265625000,109.5309982299804700,2402
12,1336067475,4330,862,267.2312011718750000,93.0724563598632800,19.3849792480468750,28.5968093872070300,28.7070503234863280,33.2388305664062500,4.5317759513854980,590.2656250000000000,718.6762695312500000,109.4106979370117200,36927
12,1336067533,4330,862,268.2457885742187500,93.4351882934570300,19.3899593353271500,28.5527896881103500,28.6636199951171880,33.1948890686035160,4.5312647819519040,589.0225830078125000,718.6292114257812000,109.2465972900390600,35558
12,1336067589,4330,862,269.1596069335937500,93.7561874389648400,19.3913497924804700,28.5144691467285160,28.6258106231689450,33.1579208374023440,4.5321121215820310,588.1740112304688000,718.6353149414062000,109.2005996704101600,17903
12,1336067645,4330,862,269.7986145019531000,93.9854736328125000,19.3949298858642580,28.4867191314697270,28.5984306335449220,33.1285018920898440,4.5300669670104980,587.4108886718750000,718.7194213867188000,109.0824966430664000,59455
12,1336067701,4330,862,270.4563903808594000,94.2241134643554700,19.3999404907226560,28.4578895568847660,28.5699806213378900,33.0996284484863300,4.5296478271484375,586.5415039062500000,718.7299804687500000,108.9171981811523400,28438
12,1336067757,4330,862,271.2933044433594000,94.5303878784179700,19.4076404571533200,28.4203891754150400,28.5329895019531250,33.0641212463378900,4.5311279296875000,585.6226196289062000,718.7077026367188000,108.6631011962890600,43118
12,1336067813,4330,862,272.3078002929687500,94.9031982421875000,19.4178009033203120,28.3749294281005860,28.4881305694580080,33.0191993713378900,4.5310668945312500,584.3491821289062000,718.6159057617188000,108.3282012939453100,14863
12,1336067870,4330,862,273.4801025390625000,95.3393707275390600,19.4321994781494140,28.3215808868408200,28.4354896545410160,32.9642295837402340,4.5287399291992190,583.0266113281250000,718.6171875000000000,107.8531036376953100,59937
12,1336067926,4330,862,274.8721008300781000,95.8510665893554700,19.4458808898925780,28.2600002288818360,28.3747291564941400,32.9065284729003900,4.5317988395690920,581.3220825195312000,718.5435791015625000,107.4018020629882800,58987
12,1336067982,4330,862,275.5281066894531000,96.1015167236328100,19.4571094512939450,28.2289791107177730,28.3441200256347660,32.8760681152343750,4.5319437980651855,580.4938964843750000,718.5098876953125000,107.0313034057617200,23450
12,1336068038,4330,862,276.6741943359375000,96.5421295166015600,19.4782199859619140,28.1744194030761720,28.2902908325195300,32.8196182250976560,4.5293269157409670,578.9423828125000000,718.4735717773438000,106.3351974487304700,59890
12,1336068094,4330,862,277.4537963867187500,96.8926696777343800,19.5185508728027340,28.1266708374023440,28.2431793212890620,32.7747993469238300,4.5316162109375000,577.7874145507812000,718.2990112304688000,105.0053024291992200,16646
12,1336068150,4330,862,277.8969116210937500,97.1463928222656200,19.5693397521972660,28.0877609252929700,28.2047901153564450,32.7354202270507800,4.5306320190429690,576.6665039062500000,717.9973144531250000,103.3305969238281200,51649
12,1336068208,4330,862,278.2578125000000000,97.4266967773437500,19.6483097076416000,28.0404796600341800,28.1581401824951170,32.6893501281738300,4.5312118530273440,575.4788818359375000,717.5078735351562000,100.7272033691406200,12463
12,1336068264,4330,862,277.5172119140625000,97.4969787597656200,19.8175296783447270,27.9988193511962900,28.1170291900634770,32.6503791809082000,4.5333399772644040,574.3135986328125000,716.8579711914062000,95.1515579223632800,3689
12,1336068320,4330,862,276.4617004394531000,97.5046463012695300,20.0124492645263670,27.9590702056884770,28.0778102874755860,32.6116981506347660,4.5338897705078125,573.0908203125000000,715.3726196289062000,88.7330932617187500,6524
12,1336068376,4330,862,275.6294860839844000,97.3876495361328100,20.1035709381103500,27.9539794921875000,28.0727901458740230,32.6089591979980500,4.5361709594726560,572.8953247070312000,713.9993896484375000,85.7339935302734400,63002
12,1336068432,4330,862,274.7955932617187500,97.2726669311523400,20.1965599060058600,27.9483108520507800,28.0671901702880860,32.6056213378906250,4.5384287834167480,572.7111206054688000,713.0712280273438000,82.6748809814453100,50209
12,1336068488,4330,862,273.9472961425781000,97.0754394531250000,20.2500495910644530,27.9600200653076170,28.0787506103515620,32.6179618835449200,4.5392069816589355,573.1085815429688000,712.2971801757812000,80.9157333374023400,3817
12,1336068546,4330,862,273.5199890136719000,96.9527587890625000,20.2649707794189450,27.9708003997802730,28.0893898010253900,32.6310691833496100,4.5416870117187500,573.3555297851562000,711.8366088867188000,80.4249801635742200,2371
12,1336068602,4330,862,273.2623901367187500,96.9268569946289000,20.2990398406982420,27.9670295715332030,28.0856704711914060,32.6272392272949200,4.5415730476379395,573.2537841796875000,711.5250244140625000,79.3048019409179700,47369
12,1336068658,4330,862,272.8926086425781000,96.8704528808593800,20.3379592895507800,27.9654293060302730,28.0840797424316400,32.6263809204101560,4.5422968864440920,573.2141723632812000,711.1682128906250000,78.0251007080078100,59248
12,1336068714,4330,862,272.7101135253906000,96.8420028686523400,20.3568992614746100,27.9649600982666000,28.0836296081542970,32.6251983642578100,4.5415730476379395,573.3245239257812000,709.6629028320312000,77.4024581909179700,27665
12,1336068770,4330,862,272.5127868652344000,96.7790908813476600,20.3606395721435550,27.9713401794433600,28.0899200439453120,32.6321105957031250,4.5421910285949710,573.4384765625000000,710.7302246093750000,77.2798233032226600,23548
12,1336068826,4330,862,272.4533081054687500,96.7611465454101600,20.3623008728027340,27.9729690551757800,28.0915298461914060,32.6324195861816400,4.5408940315246580,573.4760131835938000,710.6602783203125000,77.2252426147461000,49076
12,1336068904,4330,862,272.5338134765625000,96.7900009155273400,20.3624401092529300,27.9696903228759770,28.0882892608642580,32.6302108764648440,4.5419239997863770,573.6229248046875000,709.6414184570312000,77.2205200195312500,61709
12,1336068957,4330,862,272.6115112304687500,96.8222503662109400,20.3648796081542970,27.9657306671142580,28.0843791961669920,32.6260414123535160,4.5416560173034670,573.5568237304688000,710.6911010742188000,77.1404571533203100,56590
12,1336069009,4330,862,272.6901855468750000,96.8553237915039000,20.3675308227539060,27.9611606597900400,28.0798797607421880,32.6205215454101560,4.5406417846679690,573.5822753906250000,710.7587280273438000,77.0530319213867200,53841
12,1336069055,4330,862,272.5831909179687500,96.8431777954101600,20.3810005187988280,27.9601097106933600,28.0788307189941400,32.6209602355957000,4.5421218872070310,573.5590820312500000,710.7459106445312000,76.6104736328125000,27854
12,1336069101,4330,862,272.4121093750000000,96.8156890869140600,20.3983707427978500,27.9596996307373050,28.0784397125244140,32.6189498901367200,4.5405120849609375,573.5850219726562000,709.4467163085938000,76.0395584106445300,54246
12,1336069147,4330,862,272.1708984375000000,96.7717590332031200,20.4202098846435550,27.9602508544921880,28.0789794921875000,32.6193504333496100,4.5403671264648440,573.6055297851562000,710.5430908203125000,75.3219070434570300,18956
12,1336069195,4330,862,272.0867919921875000,96.7954330444336000,20.4481792449951170,27.9520092010498050,28.0708503723144530,32.6114692687988300,4.5406188964843750,573.4860839843750000,710.5537719726562000,74.4028472900390600,42207
12,1336069241,4330,862,272.1223144531250000,96.8161773681640600,20.4524307250976560,27.9488391876220700,28.0677204132080080,32.6068000793457000,4.5390849113464355,573.4346923828125000,708.8496704101562000,74.2630081176757800,50067
12,1336069267,4330,862,272.2291870117187500,96.8567962646484400,20.4537601470947270,27.9439105987548830,28.0628604888916000,32.6058082580566400,4.5429530143737790,573.4885864257812000,708.6569213867188000,74.2192535400390600,21887
12,1336069291,4330,862,272.1187133789062500,96.8166809082031200,20.4533290863037100,27.9486408233642580,28.0675201416015620,32.6095390319824200,4.5420150756835940,573.4824829101562000,708.3615112304688000,74.2333068847656200,24847
12,1336070593,4330,862,267.7062988281250000,95.1621170043945300,20.4084091186523440,28.1461906433105470,28.2624397277832030,32.8203201293945300,4.5578842163085940,578.8989257812500000,710.2470703125000000,75.7096023559570300,17237
12,1336070613,4330,862,267.2630004882812500,94.9283370971679700,20.3678894042968750,28.1812095642089840,28.2970008850097660,32.8541488647460940,4.5571517944335940,579.9545288085938000,709.5072021484375000,77.0415267944336000,41542
12,1336070633,4330,862,269.6572875976562500,96.0674667358398400,20.5199794769287100,28.0201206207275400,28.1380500793457030,32.6946296691894500,4.5565800666809080,575.5667114257812000,709.3018798828125000,72.0436935424804700,58098
12,1336070653,4330,862,268.4978027343750000,95.3524703979492200,20.3602409362792970,28.1338691711425780,28.2502803802490230,32.8047218322753900,4.5544362068176270,578.7440795898438000,708.9061279296875000,77.2927093505859400,19646
12,1336070673,4330,862,266.7036132812500000,95.0707473754882800,20.5495605468750000,28.1284904479980470,28.2449798583984380,32.7981910705566400,4.5532150268554690,578.4536743164062000,708.9487304687500000,71.0722122192382800,48463
12,1336070693,4330,862,269.0675964355469000,95.6367034912109400,20.4034595489501950,28.0926609039306640,28.2096195220947270,32.7635002136230500,4.5538787841796875,577.5021972656250000,708.7783203125000000,75.8721694946289000,60027
12,1336070713,4330,862,265.2474060058594000,94.6038894653320300,20.5775299072265620,28.1767692565917970,28.2926197052001950,32.8405914306640600,4.5479741096496580,579.7116088867188000,708.3687744140625000,70.1535491943359400,33058
12,1336070733,4330,862,267.9724121093750000,95.2185363769531200,20.3881607055664060,28.1436691284179700,28.2599601745605470,32.8111686706543000,4.5512161254882810,578.9022827148438000,708.0109863281250000,76.3751220703125000,65163